Temperature
6 5 5 5 5 6 5 5 5 6 6 6 5 5 6 6 6 6 6 7 7 8 9 9 10 10 10 10 10 10 10 10 10 10 10 10 10 10 10 10 10 10 10 9
4 5 5 6 5 5 5 5 5 5 6 6 5 5 5 5 5 6 6 6 7 7 8 8 9 9 10 10 10 10 10 10 10 10 10 10 10 10 9 9 9 9 9 9
5 5 5 5 5 5 5 5 5 5 5 5 5 5 5 5 5 6 6 7 7 7 7 8 9 9 9 9 9 9 9 10 10 10 9 9 9 9 9 9 9 9 9 9
4 5 5 5 5 5 5 5 5 5 4 4 4 4 5 5 5 5 5 6 6 7 7 7 8 8 9 9 9 9 9 9 9 9 9 9 9 9 9 9 8 8 8 8
4 4 4 5 5 5 4 5 4 4 4 3 3 3 4 4 4 5 4 5 6 6 7 7 7 8 8 8 8 8 8 9 8 8 8 8 9 9 9 8 8 8 8 8
3 4 4 4 4 4 4 4 3 2 3 3 3 3 4 3 4 5 4 5 5 6 6 6 7 7 8 8 8 8 8 8 8 8 8 8 8 8 8 8 8 7 7 7
3 3 4 4 4 4 4 3 3 2 2 3 3 3 4 4 4 4 4 4 5 5 5 6 6 6 7 7 7 7 7 7 7 7 7 7 7 7 8 8 7 7 7 7
2 3 3 3 4 3 3 3 3 3 2 2 2 2 3 4 4 4 4 4 4 5 5 5 5 6 6 6 6 7 7 7 7 7 7 7 7 7 7 7 7 7 6 6
2 2 3 3 3 3 3 3 2 2 1 1 2 2 3 3 3 3 3 3 4 4 4 5 5 5 6 6 6 6 6 6 6 6 6 6 6 6 6 6 6 6 6 6
2 2 2 2 3 3 3 2 1 1 2 3 3 2 3 3 3 2 2 2 3 4 4 4 5 5 5 5 5 6 6 6 6 6 6 5 5 6 6 6 6 6 6 6
2 1 1 2 2 2 2 2 1 1 1 2 2 3 3 2 2 2 2 2 3 3 3 4 4 4 4 5 5 5 5 5 5 5 5 5 5 5 5 5 5 5 5 5
1 -0 0 1 1 2 2 1 1 1 1 0 1 3 3 2 2 2 2 2 3 3 3 3 4 4 4 4 4 4 5 5 5 5 5 5 5 4 5 5 5 5 5 5
1 -0 0 1 1 1 1 1 1 0 -0 -1 0 2 3 1 1 2 2 2 3 3 3 3 3 3 3 3 4 4 4 4 4 4 4 4 4 4 4 4 4 4 4 4
1 -1 -0 1 1 0 0 0 0 -0 -0 -0 0 2 2 2 1 1 2 2 2 2 2 2 3 3 3 3 3 3 3 3 4 4 4 4 4 4 4 4 4 4 4 4
-0 -1 -2 -1 -0 -0 0 0 -0 -0 0 0 1 1 2 2 1 1 2 2 2 2 2 2 2 2 2 3 3 3 3 3 3 3 3 3 3 3 3 3 3 3 3 3
-1 -2 -2 -1 -0 -1 -0 0 0 0 0 -0 0 1 1 1 1 1 1 1 1 1 2 2 2 2 2 2 2 2 3 3 3 3 3 3 3 3 3 3 3 3 3 2
-2 -2 -2 -1 -2 -1 -1 -0 -0 -0 -0 -0 0 1 1 0 0 1 1 1 1 1 2 2 2 2 2 2 2 2 2 2 2 2 2 2 2 2 2 2 2 2 2 2
-3 -3 -3 -3 -2 -1 1 0 -0 -0 -0 -1 -0 -0 -0 0 1 1 1 1 1 2 1 1 2 2 2 1 1 1 2 2 2 2 2 2 2 2 2 2 2 2 2 2
-3 -3 -3 -3 -2 -2 -0 -0 -1 -1 -0 -1 -1 -1 -0 0 0 0 2 1 1 1 1 1 1 1 1 1 1 1 1 1 1 1 1 2 2 2 2 2 2 2 2 1
-3 -3 -3 -4 -2 -2 0 0 -0 -0 -1 -0 -1 -1 -1 -1 -1 -0 1 1 1 1 1 1 1 1 1 1 1 1 1 1 1 1 1 1 1 1 1 1 1 1 1 1
-3 -4 -4 -4 -3 -2 -1 -1 -0 -0 0 0 -0 -0 -1 -1 -1 1 1 1 1 1 1 1 1 1 1 1 0 0 0 0 1 1 1 1 1 1 1 1 1 1 1 1
-3 -4 -4 -4 -3 -2 -1 -2 -1 -0 0 0 0 0 -0 -0 -0 0 0 0 0 0 0 0 0 0 0 0 0 0 0 0 0 0 0 0 0 0 0 0 0 0 0 0
-4 -3 -3 -3 -2 -1 -1 -1 0 0 0 0 -0 -0 -0 -1 -1 -0 -0 -0 -0 -0 -0 -0 -0 -0 -0 -0 -0 -1 -0 -0 -0 -0 -0 -0 -0 -0 -0 -0 -0 -0 -0 -1
-4 -4 -4 -4 -3 -2 -1 -0 -0 -0 -0 -0 -0 -1 -1 -1 -1 -1 -1 -1 -1 -1 -1 -1 -1 -1 -1 -1 -1 -1 -1 -1 -1 -1 -1 -1 -1 -1 -1 -1 -1 -1 -1 -1
-4 -5 -5 -4 -4 -3 -1 -0 -0 -0 -0 -1 -1 -1 -1 -1 -2 -1 -1 -1 -1 -1 -1 -1 -2 -1 -1 -1 -1 -1 -1 -1 -1 -1 -1 -1 -1 -1 -1 -1 -1 -1 -1 -1
-5 -5 -4 -3 -2 -3 -1 -0 -0 -1 -1 -1 -1 -1 -1 -2 -2 -2 -2 -2 -2 -2 -2 -2 -2 -2 -2 -2 -2 -2 -2 -2 -2 -2 -2 -2 -2 -2 -2 -2 -2 -2 -2 -2
Wind_Speed
2 2 3 5 6 3 3 3 4 5 3 2 6 10 11 7 4 6 7 7 7 7 6 4 3 3 3 3 3 4 4 3 4 4 4 4 4 3 3 3 5 6 6 6
2 4 6 3 2 2 2 3 5 5 3 3 6 10 9 5 5 6 6 7 6 5 4 4 2 1 2 3 3 3 4 4 5 4 4 3 3 3 3 3 3 5 6 6
6 3 3 2 1 2 4 5 5 5 4 2 4 7 5 4 3 4 5 5 4 5 5 4 3 2 1 2 3 3 4 4 4 4 4 3 3 2 1 2 3 3 5 6
4 3 1 1 2 3 6 4 4 4 2 3 1 5 6 3 4 5 6 4 5 5 5 4 2 2 2 3 2 3 4 4 4 5 5 6 5 4 3 3 3 3 4 5
3 2 1 3 3 3 3 2 2 2 2 3 1 3 8 2 4 6 6 5 5 5 4 4 3 2 2 1 1 2 3 3 4 4 6 6 4 3 3 3 3 3 2 3
3 2 2 3 1 2 1 3 3 2 2 3 4 4 7 3 5 5 4 4 3 3 3 3 2 2 2 2 1 1 3 3 3 4 5 5 5 5 5 4 4 3 2 1
4 2 2 1 2 1 2 3 2 3 1 5 2 4 7 6 5 5 5 5 3 2 1 2 3 3 2 2 1 1 3 3 3 4 4 4 5 6 6 5 5 4 3 2
2 5 3 1 3 4 3 5 5 4 4 4 1 5 7 5 4 3 3 2 1 1 1 2 2 2 2 2 1 0 2 3 3 3 3 3 4 4 3 4 4 4 4 3
3 5 2 2 1 4 3 3 3 3 1 2 5 6 7 4 3 3 3 2 1 1 1 2 2 2 2 2 2 0 1 2 2 3 3 3 3 3 3 3 3 3 3 3
4 4 4 2 2 0 3 4 4 3 3 4 5 5 5 5 4 4 3 3 3 2 1 2 3 3 2 2 2 1 2 2 2 2 2 2 3 3 3 2 3 3 3 3
2 2 4 1 4 5 2 2 3 3 3 4 4 6 5 5 3 2 3 3 3 2 2 2 3 2 2 3 2 2 2 2 2 2 2 2 2 2 2 2 3 3 3 3
2 2 3 6 4 2 4 5 5 4 4 3 3 7 4 3 2 1 2 3 3 2 2 2 2 2 2 2 2 2 1 2 1 1 2 2 2 2 2 2 2 2 3 3
3 2 1 4 3 1 2 3 4 4 3 4 5 8 3 2 3 2 2 3 3 2 3 2 2 2 2 1 1 2 1 1 1 1 2 2 2 2 2 2 2 2 2 2
2 3 5 7 5 3 4 5 4 5 4 6 9 10 10 7 6 6 5 4 3 3 2 2 2 2 1 1 1 1 1 0 1 1 2 2 2 2 2 2 2 2 2 2
3 3 5 7 7 5 7 8 7 9 9 9 9 10 12 9 7 6 4 4 3 3 3 3 2 2 1 1 1 1 1 0 0 0 0 1 1 1 1 1 1 1 1 2
2 2 1 4 4 5 8 9 10 10 9 10 11 13 10 8 5 4 4 4 5 4 4 4 3 2 2 2 2 1 1 1 0 0 1 1 1 1 1 1 1 1 1 1
2 3 1 4 5 4 7 9 9 7 7 8 11 11 7 6 7 6 6 6 6 5 4 4 4 4 4 3 3 3 2 1 0 1 1 1 1 1 2 2 2 2 2 2
4 3 2 2 2 6 7 3 6 7 8 9 8 8 7 8 8 7 6 6 6 5 5 5 4 4 3 3 2 2 2 1 1 2 2 2 1 2 2 2 3 3 2 3
6 5 3 2 3 8 8 3 3 5 8 7 9 8 6 5 4 5 4 4 6 6 5 5 4 4 3 3 2 2 2 2 2 2 3 3 2 3 3 3 4 3 3 3
2 3 4 3 3 7 6 3 2 2 6 5 5 6 5 2 4 6 4 4 4 4 4 3 3 2 2 3 2 2 2 2 3 4 4 3 3 3 4 4 4 3 3 3
2 2 4 5 5 8 6 3 2 3 6 4 4 5 4 5 6 6 5 4 4 4 3 2 2 2 3 3 2 3 3 4 4 4 3 3 3 3 4 4 3 3 3 2
6 5 5 4 5 8 3 3 5 6 4 4 5 5 5 6 6 5 5 4 3 3 3 2 2 2 2 2 3 3 4 4 3 3 3 3 3 3 3 3 3 3 3 3
7 7 6 8 8 5 3 5 5 4 5 5 5 5 4 5 6 5 5 4 4 3 2 2 2 2 2 2 2 4 4 3 2 2 3 3 3 2 3 3 3 3 3 3
5 3 4 6 8 7 7 7 6 6 6 6 5 5 4 6 6 6 5 4 3 3 2 2 1 2 3 3 2 3 3 3 2 3 3 3 2 2 2 2 3 3 4 3
5 4 4 7 7 7 7 7 7 6 5 5 5 5 5 5 6 5 5 4 4 3 3 2 2 3 3 3 3 3 2 2 3 3 3 2 2 2 2 2 3 4 4 5
5 6 6 8 8 6 7 6 5 6 6 6 5 5 4 4 5 5 5 4 4 3 3 2 2 2 3 3 3 3 2 2 3 3 3 2 2 2 2 2 2 3 4 5
Wind_Direction
21 87 212 225 217 223 199 209 255 263 291 295 268 277 283 289 284 276 276 271 270 269 273 268 246 230 207 201 192 192 183 188 174 171 169 168 179 181 180 175 172 167 166 169
44 242 247 249 227 245 231 255 272 292 310 281 284 284 283 270 260 254 259 266 268 284 305 304 291 237 210 206 200 197 191 188 187 185 179 168 158 171 178 166 170 172 165 167
207 249 252 208 214 230 239 236 258 274 322 322 315 303 282 282 273 279 269 264 271 267 274 286 291 275 253 231 211 203 202 188 184 168 153 131 108 97 122 169 182 183 173 170
241 278 284 248 234 213 250 246 246 264 302 296 16 297 290 274 294 282 273 273 272 277 273 275 286 293 275 248 220 196 192 183 175 162 160 164 169 175 188 185 179 168 169 168
255 252 230 240 252 200 230 285 243 239 216 288 254 241 288 309 286 279 275 271 275 277 273 274 278 266 279 275 206 191 171 167 165 165 168 170 169 168 153 146 143 152 147 147
264 256 217 218 247 188 154 38 41 51 92 266 226 202 283 255 250 279 290 286 283 289 297 297 312 353 358 5 44 154 158 163 162 165 167 171 166 158 151 153 156 162 158 146
303 283 288 163 85 47 83 86 28 359 337 254 216 211 256 259 256 258 277 287 286 287 316 332 353 7 3 3 5 152 158 167 167 166 171 174 169 166 167 169 170 168 169 183
262 279 247 221 192 191 201 158 168 206 234 276 272 234 258 273 280 283 291 291 318 354 350 349 347 354 349 352 352 22 172 166 166 170 174 170 164 165 171 175 175 177 183 188
208 260 287 264 239 156 165 198 171 148 194 270 264 275 297 289 315 338 348 358 346 335 344 349 1 6 3 0 344 282 156 151 161 164 158 158 162 162 169 178 171 172 176 175
180 252 287 301 62 61 170 150 112 146 191 254 278 267 264 288 300 333 345 332 323 327 345 356 360 357 357 352 0 28 97 142 150 151 158 161 161 159 158 163 168 169 172 166
170 200 296 307 194 196 151 152 155 166 185 192 264 269 243 241 252 273 296 309 313 317 317 340 344 347 355 11 23 35 65 79 111 140 148 146 152 149 154 176 183 176 170 166
172 165 254 257 254 219 196 188 164 179 229 208 232 269 278 237 245 245 293 309 320 319 321 329 337 354 13 19 18 25 56 72 76 144 140 153 156 152 165 182 186 181 182 180
153 150 339 335 324 305 234 214 188 167 167 200 222 264 287 323 326 311 296 301 308 310 324 333 343 345 350 356 1 10 25 45 45 106 133 151 159 170 187 196 189 187 186 189
149 172 200 220 241 223 250 244 208 183 208 233 235 257 283 302 304 303 298 289 284 279 282 295 312 314 320 318 321 345 355 39 60 74 131 164 185 192 196 194 187 188 183 190
143 212 237 257 264 248 243 245 228 217 219 229 252 256 270 281 278 281 283 285 289 285 282 276 275 275 292 304 314 318 311 305 120 65 112 215 212 192 179 177 180 177 182 201
137 189 237 283 281 270 268 260 242 236 233 242 259 270 268 275 275 272 271 272 269 264 267 272 271 262 264 261 266 270 264 266 236 244 275 250 198 191 192 190 175 169 193 216
182 159 186 275 309 327 272 242 226 230 225 217 239 253 269 278 275 265 258 258 254 256 261 261 254 244 246 245 237 233 230 229 238 264 268 256 212 207 218 208 191 196 200 200
188 169 184 257 2 252 251 232 215 229 249 234 243 257 259 263 272 270 254 243 251 256 261 257 251 249 248 251 247 229 208 212 233 258 266 257 238 226 223 214 210 218 208 206
187 172 173 183 246 276 287 257 198 220 266 239 239 254 264 277 295 285 254 237 245 252 256 250 244 245 241 240 237 219 217 217 232 249 256 250 236 230 226 224 223 219 209 216
152 158 166 183 223 252 263 260 215 177 277 260 229 246 257 281 288 280 280 268 271 270 260 249 246 246 240 246 221 211 225 222 239 248 251 247 233 226 229 229 224 214 203 212
170 184 197 208 234 261 262 256 142 195 260 289 240 245 238 235 245 272 292 293 280 274 266 251 237 236 244 243 208 216 228 238 249 253 250 246 234 233 230 221 214 203 199 199
187 185 197 182 219 253 232 147 195 237 289 292 274 260 250 259 276 286 288 286 286 286 282 262 238 259 266 243 206 228 243 249 248 249 251 252 247 241 225 208 207 197 189 192
206 199 196 201 223 256 223 226 252 269 272 269 270 272 267 271 279 287 289 286 285 273 270 268 243 267 283 271 220 232 252 248 241 240 249 254 254 230 215 203 200 195 192 199
250 218 213 251 262 264 266 266 272 268 267 271 268 270 268 270 275 279 282 285 285 280 279 276 246 259 280 286 265 243 244 233 225 236 248 247 241 227 213 213 204 200 201 205
228 191 222 256 273 290 273 257 258 264 271 280 281 269 261 263 271 272 276 277 277 281 288 270 246 255 269 279 280 274 249 214 219 230 240 247 239 224 221 226 221 217 219 210
213 202 211 243 245 239 263 269 261 261 268 271 276 282 277 260 267 275 278 278 276 278 282 278 270 263 271 275 280 283 261 220 212 228 234 236 235 228 224 226 264 267 246 241
Height
1485 1488 1489 1488 1488 1487 1489 1490 1489 1486 1484 1484 1482 1479 1474 1472 1472 1471 1469 1468 1468 1467 1468 1469 1470 1471 1472 1473 1474 1476 1477 1480 1482 1484 1486 1488 1491 1493 1496 1498 1500 1502 1504 1506
1488 1488 1485 1485 1485 1486 1487 1488 1488 1486 1483 1483 1481 1477 1472 1470 1469 1468 1466 1465 1465 1465 1465 1465 1466 1467 1468 1469 1471 1472 1474 1476 1478 1480 1482 1485 1487 1490 1492 1494 1496 1498 1500 1502
1485 1485 1483 1483 1484 1485 1485 1487 1487 1486 1484 1483 1482 1475 1470 1467 1465 1465 1463 1463 1462 1463 1463 1462 1463 1464 1465 1466 1467 1468 1470 1472 1474 1476 1479 1481 1484 1486 1489 1491 1493 1494 1497 1499
1486 1483 1483 1482 1482 1483 1483 1483 1484 1484 1487 1488 1486 1484 1470 1466 1464 1462 1461 1460 1460 1460 1460 1460 1460 1461 1462 1463 1464 1466 1467 1469 1471 1473 1475 1477 1479 1481 1484 1487 1489 1491 1493 1495
1485 1483 1482 1482 1481 1482 1483 1482 1483 1484 1487 1490 1488 1489 1473 1467 1464 1461 1459 1458 1458 1458 1458 1458 1458 1459 1460 1461 1462 1463 1465 1466 1468 1470 1472 1474 1476 1478 1481 1483 1485 1487 1489 1491
1484 1482 1481 1480 1480 1481 1482 1484 1485 1488 1490 1490 1486 1488 1475 1470 1462 1458 1456 1456 1455 1455 1455 1455 1456 1457 1458 1459 1460 1461 1462 1464 1466 1468 1469 1471 1473 1475 1477 1479 1482 1484 1486 1487
1485 1482 1480 1479 1481 1482 1483 1488 1495 1495 1498 1490 1484 1484 1473 1462 1458 1457 1455 1454 1453 1453 1453 1454 1454 1455 1456 1457 1458 1459 1461 1462 1464 1465 1467 1468 1470 1472 1474 1476 1478 1480 1482 1484
1488 1485 1480 1479 1479 1482 1483 1485 1494 1496 1498 1491 1486 1482 1468 1459 1457 1455 1454 1453 1452 1452 1453 1453 1454 1454 1455 1456 1457 1458 1459 1460 1462 1463 1465 1466 1468 1469 1471 1473 1475 1477 1479 1481
1488 1485 1479 1478 1477 1479 1482 1484 1486 1494 1497 1495 1486 1479 1466 1456 1455 1453 1452 1451 1451 1451 1452 1452 1453 1453 1454 1455 1455 1456 1457 1458 1460 1461 1463 1464 1465 1467 1469 1470 1473 1475 1476 1478
1483 1486 1481 1478 1478 1478 1480 1483 1490 1493 1492 1488 1481 1478 1468 1459 1455 1454 1453 1451 1451 1451 1451 1451 1452 1452 1453 1454 1454 1455 1455 1457 1458 1459 1461 1462 1464 1465 1467 1468 1470 1472 1473 1475
1482 1487 1484 1481 1480 1479 1482 1484 1485 1489 1489 1488 1486 1473 1459 1456 1454 1454 1453 1452 1451 1451 1450 1450 1451 1451 1452 1452 1453 1453 1454 1455 1456 1458 1459 1461 1462 1463 1465 1466 1467 1469 1471 1472
1481 1486 1487 1482 1477 1476 1477 1478 1482 1486 1488 1489 1485 1472 1454 1454 1453 1452 1452 1451 1451 1451 1450 1450 1450 1450 1451 1451 1451 1452 1453 1454 1455 1456 1457 1459 1460 1462 1463 1464 1464 1466 1467 1469
1481 1485 1488 1482 1482 1480 1478 1477 1478 1482 1485 1489 1484 1469 1453 1453 1452 1451 1451 1450 1450 1450 1450 1449 1449 1449 1449 1450 1450 1451 1451 1452 1453 1454 1455 1457 1458 1459 1460 1461 1462 1464 1464 1465
1477 1483 1484 1481 1475 1477 1478 1476 1477 1480 1481 1481 1474 1463 1454 1453 1452 1450 1449 1449 1449 1448 1448 1448 1448 1448 1448 1449 1449 1449 1450 1451 1452 1453 1453 1454 1456 1457 1457 1458 1459 1460 1461 1462
1476 1481 1482 1479 1475 1475 1473 1472 1473 1474 1472 1471 1464 1461 1453 1451 1450 1449 1448 1447 1447 1446 1446 1446 1446 1446 1446 1447 1447 1448 1448 1449 1450 1450 1451 1452 1453 1453 1454 1455 1456 1457 1458 1459
1476 1480 1481 1478 1473 1474 1472 1467 1467 1466 1465 1465 1461 1456 1449 1448 1447 1447 1446 1445 1444 1444 1444 1444 1444 1444 1445 1445 1445 1446 1446 1447 1447 1448 1448 1449 1450 1451 1451 1452 1453 1454 1455 1456
1477 1479 1481 1478 1476 1472 1469 1462 1460 1460 1458 1458 1456 1450 1447 1447 1445 1444 1443 1442 1441 1441 1441 1441 1442 1442 1442 1443 1443 1443 1444 1444 1445 1445 1446 1446 1447 1448 1449 1449 1450 1451 1451 1452
1475 1478 1481 1481 1479 1476 1458 1453 1453 1453 1451 1451 1449 1446 1445 1444 1442 1440 1440 1440 1439 1439 1439 1439 1439 1439 1440 1440 1440 1441 1441 1442 1442 1443 1443 1443 1444 1445 1445 1446 1447 1447 1448 1448
1470 1474 1480 1481 1478 1468 1455 1451 1451 1452 1448 1444 1444 1442 1442 1441 1439 1437 1437 1437 1436 1436 1436 1436 1436 1436 1437 1437 1437 1438 1438 1438 1439 1439 1440 1440 1441 1441 1442 1442 1443 1443 1444 1444
1469 1471 1477 1480 1476 1469 1451 1447 1446 1449 1447 1440 1439 1439 1439 1439 1441 1436 1434 1433 1432 1432 1432 1432 1433 1433 1433 1434 1434 1434 1434 1434 1435 1436 1436 1436 1437 1437 1437 1438 1439 1439 1440 1440
1470 1473 1474 1475 1474 1461 1449 1446 1446 1452 1445 1438 1437 1436 1437 1437 1436 1433 1431 1430 1429 1429 1429 1429 1429 1429 1430 1430 1430 1430 1430 1430 1431 1432 1432 1432 1433 1433 1433 1434 1435 1435 1436 1437
1464 1468 1471 1473 1470 1459 1444 1445 1446 1442 1437 1436 1435 1434 1433 1432 1431 1429 1428 1427 1426 1425 1425 1425 1425 1425 1426 1426 1426 1426 1426 1427 1427 1428 1428 1428 1428 1429 1429 1430 1430 1431 1432 1433
1459 1456 1456 1456 1451 1442 1440 1439 1438 1437 1435 1434 1432 1431 1431 1429 1428 1426 1425 1424 1423 1423 1422 1422 1422 1422 1422 1422 1422 1422 1422 1423 1423 1423 1424 1424 1424 1424 1425 1426 1426 1427 1428 1429
1452 1450 1451 1449 1441 1438 1437 1435 1435 1434 1433 1431 1430 1429 1428 1426 1425 1423 1422 1421 1420 1420 1419 1419 1419 1418 1418 1418 1418 1418 1419 1419 1419 1419 1419 1420 1420 1420 1421 1422 1423 1424 1424 1425
1445 1447 1447 1444 1438 1435 1432 1431 1430 1430 1429 1428 1426 1425 1424 1423 1421 1420 1419 1418 1417 1417 1416 1416 1415 1415 1414 1414 1414 1414 1415 1415 1415 1415 1415 1416 1416 1417 1417 1418 1419 1420 1421 1422
1439 1440 1441 1436 1432 1432 1428 1427 1427 1426 1425 1424 1423 1421 1421 1420 1418 1417 1416 1415 1414 1413 1413 1412 1412 1411 1411 1411 1411 1411 1411 1411 1411 1411 1411 1412 1412 1413 1414 1415 1415 1416 1418 1419